Location: Quedlinburg
(51.7921°N, 11.1414°E)
Time: 14:22:36
(UTC+02:00)

RS-15 - Pass Details

Date: 19 March 2026
Orbit: 1893 x 2152 km, 64.8° (Epoch: 22 April)

Event Time Altitude Azimuth Distance (km) Brightness Sun altitude
Rises 01:32:44 0° 300° (WNW) 5,333 10.4 -36.8°
Reaches altitude 10° 01:36:12 10° 306° (NW) 4,359 10.0 -36.6°
Maximum altitude 01:47:02 49° 20° (NNE) 2,458 8.7 -35.9°
Drops below altitude 10° 01:58:22 10° 94° (E) 4,553 10.2 -35.1°
Sets 02:02:04 0° 100° (E) 5,585 10.7 -34.8°
